Time,TemperatureF,DewpointF,PressureIn,WindDirection,WindDirectionDegrees,WindSpeedMPH,WindSpeedGustMPH,Humidity,HourlyPrecipIn,Conditions,Clouds,dailyrainin,SoftwareType,DateUTC
2013-07-01 00:01:00,66.0,65.0,27.72,SE,134,0.0,0.0,98,0.00,,,0.13,,2013-07-01 04:01:00,
2013-07-01 00:11:00,66.0,65.0,27.72,SE,134,0.0,0.0,98,0.00,,,0.13,,2013-07-01 04:11:00,
2013-07-01 00:22:00,66.0,65.0,27.73,SE,134,0.0,1.0,98,0.00,,,0.13,,2013-07-01 04:22:00,
2013-07-01 00:32:00,66.0,65.0,27.73,SE,134,0.0,1.0,98,0.00,,,0.13,,2013-07-01 04:32:00,
2013-07-01 00:43:00,66.0,65.0,27.73,SE,134,0.0,1.0,98,0.00,,,0.13,,2013-07-01 04:43:00,
2013-07-01 00:53:00,66.0,65.0,27.73,SSW,193,0.0,1.0,98,0.00,,,0.13,,2013-07-01 04:53:00,
2013-07-01 01:02:00,66.0,65.0,27.73,SSW,193,0.0,0.0,98,0.00,,,0.13,,2013-07-01 05:02:00,
2013-07-01 01:11:00,66.0,65.0,27.73,SSW,193,0.0,0.0,98,0.00,,,0.13,,2013-07-01 05:11:00,
2013-07-01 01:22:00,65.0,64.0,27.73,SSW,193,0.0,0.0,98,0.00,,,0.13,,2013-07-01 05:22:00,
2013-07-01 01:33:00,65.0,64.0,27.73,SSW,193,0.0,1.0,98,0.00,,,0.13,,2013-07-01 05:33:00,
2013-07-01 01:42:00,65.0,64.0,27.73,SSW,193,0.0,1.0,98,0.00,,,0.13,,2013-07-01 05:42:00,
2013-07-01 01:52:00,65.0,64.0,27.73,SSW,193,0.0,0.0,98,0.00,,,0.13,,2013-07-01 05:52:00,
2013-07-01 02:02:00,65.0,64.0,27.74,SSW,193,0.0,1.0,98,0.01,,,0.14,,2013-07-01 06:02:00,
2013-07-01 02:12:00,65.0,64.0,27.74,SSW,193,0.0,1.0,98,0.01,,,0.14,,2013-07-01 06:12:00,
2013-07-01 02:24:00,65.0,64.0,27.74,SSW,193,0.0,0.0,98,0.01,,,0.14,,2013-07-01 06:24:00,
2013-07-01 02:33:00,65.0,64.0,27.74,SSW,193,0.0,1.0,98,0.01,,,0.14,,2013-07-01 06:33:00,
2013-07-01 02:43:00,65.0,64.0,27.74,SSW,193,0.0,1.0,98,0.01,,,0.14,,2013-07-01 06:43:00,
2013-07-01 02:53:00,65.0,64.0,27.74,SSW,193,0.0,1.0,98,0.01,,,0.14,,2013-07-01 06:53:00,
2013-07-01 03:01:00,65.0,64.0,27.74,SSW,193,0.0,0.0,98,0.00,,,0.14,,2013-07-01 07:01:00,
2013-07-01 03:12:00,65.0,64.0,27.74,SSW,193,0.0,0.0,98,0.00,,,0.14,,2013-07-01 07:12:00,
2013-07-01 03:22:00,65.0,64.0,27.74,SSW,193,0.0,0.0,98,0.00,,,0.14,,2013-07-01 07:22:00,
2013-07-01 03:33:00,65.0,64.0,27.74,SSW,193,0.0,1.0,98,0.00,,,0.14,,2013-07-01 07:33:00,
2013-07-01 03:43:00,65.0,64.0,27.74,SSW,193,0.0,1.0,98,0.00,,,0.14,,2013-07-01 07:43:00,
2013-07-01 03:53:00,64.0,63.0,27.74,SSE,167,0.0,1.0,98,0.00,,,0.14,,2013-07-01 07:53:00,
2013-07-01 04:01:00,64.0,63.0,27.74,SSE,168,0.0,0.0,98,0.00,,,0.14,,2013-07-01 08:01:00,
2013-07-01 04:12:00,64.0,63.0,27.74,SSE,168,0.0,0.0,98,0.00,,,0.14,,2013-07-01 08:12:00,
2013-07-01 04:22:00,64.0,63.0,27.75,SSE,167,0.0,1.0,98,0.00,,,0.14,,2013-07-01 08:22:00,
2013-07-01 04:33:00,64.0,63.0,27.75,SSE,168,0.0,1.0,98,0.00,,,0.14,,2013-07-01 08:33:00,
2013-07-01 04:43:00,64.0,63.0,27.75,SSE,168,0.0,1.0,98,0.00,,,0.14,,2013-07-01 08:43:00,
2013-07-01 04:52:00,65.0,64.0,27.75,SSE,167,0.0,1.0,98,0.00,,,0.14,,2013-07-01 08:52:00,
2013-07-01 05:02:00,65.0,64.0,27.75,SSE,167,0.0,0.0,98,0.00,,,0.14,,2013-07-01 09:02:00,
2013-07-01 05:12:00,65.0,64.0,27.75,SSE,167,0.0,0.0,98,0.00,,,0.14,,2013-07-01 09:12:00,
2013-07-01 05:22:00,65.0,65.0,27.76,SSE,167,0.0,1.0,99,0.00,,,0.14,,2013-07-01 09:22:00,
2013-07-01 05:34:00,65.0,64.0,27.76,SW,226,0.0,1.0,98,0.00,,,0.14,,2013-07-01 09:34:00,
2013-07-01 05:43:00,65.0,64.0,27.76,SW,226,0.0,1.0,98,0.00,,,0.14,,2013-07-01 09:43:00,
2013-07-01 05:53:00,65.0,64.0,27.77,SW,225,0.0,1.0,98,0.00,,,0.14,,2013-07-01 09:53:00,
2013-07-01 06:03:00,65.0,64.0,27.77,SW,225,0.0,1.0,98,0.00,,,0.14,,2013-07-01 10:03:00,
2013-07-01 06:12:00,65.0,64.0,27.77,SW,225,0.0,1.0,98,0.00,,,0.14,,2013-07-01 10:12:00,
2013-07-01 06:22:00,65.0,64.0,27.78,SSW,200,0.0,1.0,98,0.00,,,0.14,,2013-07-01 10:22:00,
2013-07-01 06:33:00,65.0,65.0,27.78,SSW,201,0.0,0.0,99,0.00,,,0.14,,2013-07-01 10:33:00,
2013-07-01 06:43:00,65.0,65.0,27.78,SSW,201,0.0,0.0,99,0.00,,,0.14,,2013-07-01 10:43:00,
2013-07-01 06:52:00,66.0,66.0,27.78,SSW,200,0.0,0.0,99,0.00,,,0.14,,2013-07-01 10:52:00,
2013-07-01 07:02:00,66.0,66.0,27.78,SSW,200,0.0,0.0,99,0.00,,,0.14,,2013-07-01 11:02:00,
2013-07-01 07:12:00,66.0,66.0,27.78,SSW,200,0.0,0.0,99,0.00,,,0.14,,2013-07-01 11:12:00,
2013-07-01 07:22:00,67.0,67.0,27.79,SSW,200,0.0,1.0,99,0.00,,,0.14,,2013-07-01 11:22:00,
2013-07-01 07:33:00,67.0,67.0,27.79,SSW,193,0.0,1.0,99,0.00,,,0.14,,2013-07-01 11:33:00,
2013-07-01 07:43:00,67.0,67.0,27.79,SSW,193,0.0,1.0,99,0.00,,,0.14,,2013-07-01 11:43:00,
2013-07-01 07:52:00,68.0,67.0,27.80,SSW,193,0.0,1.0,98,0.00,,,0.14,,2013-07-01 11:52:00,
2013-07-01 08:01:00,68.0,67.0,27.79,SW,218,0.0,2.0,98,0.00,,,0.14,,2013-07-01 12:01:00,
2013-07-01 08:11:00,68.0,67.0,27.79,SW,218,0.0,2.0,98,0.00,,,0.14,,2013-07-01 12:11:00,
2013-07-01 08:22:00,68.0,67.0,27.79,South,183,0.0,1.0,98,0.00,,,0.14,,2013-07-01 12:22:00,
2013-07-01 08:33:00,69.0,68.0,27.80,South,182,0.0,0.0,98,0.00,,,0.14,,2013-07-01 12:33:00,
2013-07-01 08:43:00,69.0,68.0,27.80,South,182,0.0,0.0,98,0.00,,,0.14,,2013-07-01 12:43:00,
2013-07-01 08:53:00,69.0,68.0,27.81,WSW,244,0.0,2.0,97,0.00,,,0.14,,2013-07-01 12:53:00,
2013-07-01 09:02:00,70.0,68.0,27.81,WSW,249,0.0,1.0,95,0.00,,,0.14,,2013-07-01 13:02:00,
2013-07-01 09:12:00,70.0,68.0,27.81,WSW,249,0.0,1.0,95,0.00,,,0.14,,2013-07-01 13:12:00,
2013-07-01 09:23:00,71.0,68.0,27.81,East,95,1.0,1.0,91,0.00,,,0.14,,2013-07-01 13:23:00,
2013-07-01 09:33:00,71.0,68.0,27.81,East,95,1.0,1.0,91,0.00,,,0.14,,2013-07-01 13:33:00,
2013-07-01 09:53:00,72.0,68.0,27.80,ESE,112,1.0,3.0,87,0.00,,,0.14,,2013-07-01 13:53:00,
2013-07-01 10:02:00,72.0,68.0,27.80,ESE,112,1.0,3.0,87,0.00,,,0.14,,2013-07-01 14:02:00,
2013-07-01 10:11:00,72.0,68.0,27.80,ESE,112,1.0,3.0,87,0.00,,,0.14,,2013-07-01 14:11:00,
2013-07-01 10:22:00,72.0,69.0,27.82,SW,224,1.0,3.0,90,0.00,,,0.14,,2013-07-01 14:22:00,
2013-07-01 10:34:00,72.0,69.0,27.82,SW,224,1.0,3.0,90,0.00,,,0.14,,2013-07-01 14:34:00,
2013-07-01 10:43:00,71.0,68.0,27.81,WSW,245,1.0,2.0,90,0.00,,,0.14,,2013-07-01 14:43:00,
2013-07-01 10:53:00,72.0,69.0,27.82,West,259,1.0,2.0,90,0.00,,,0.14,,2013-07-01 14:53:00,
2013-07-01 11:02:00,72.0,69.0,27.82,West,259,1.0,2.0,90,0.00,,,0.14,,2013-07-01 15:02:00,
2013-07-01 11:12:00,72.0,69.0,27.83,West,271,1.0,2.0,91,0.00,,,0.14,,2013-07-01 15:12:00,
2013-07-01 11:23:00,72.0,69.0,27.83,West,271,1.0,2.0,91,0.00,,,0.14,,2013-07-01 15:23:00,
2013-07-01 11:34:00,72.0,69.0,27.83,West,271,1.0,2.0,91,0.00,,,0.14,,2013-07-01 15:34:00,
2013-07-01 11:43:00,72.0,69.0,27.83,West,263,1.0,4.0,91,0.00,,,0.14,,2013-07-01 15:43:00,
2013-07-01 11:53:00,72.0,70.0,27.84,WSW,256,1.0,2.0,92,0.00,,,0.14,,2013-07-01 15:53:00,
2013-07-01 12:11:00,72.0,70.0,27.84,WSW,239,1.0,2.0,92,0.00,,,0.14,,2013-07-01 16:11:00,
2013-07-01 12:22:00,73.0,70.0,27.84,West,269,0.0,1.0,90,0.00,,,0.14,,2013-07-01 16:22:00,
2013-07-01 12:33:00,73.0,70.0,27.83,WSW,249,0.0,1.0,89,0.00,,,0.14,,2013-07-01 16:33:00,
2013-07-01 12:44:00,73.0,70.0,27.83,WSW,249,0.0,1.0,89,0.00,,,0.14,,2013-07-01 16:44:00,
2013-07-01 12:53:00,73.0,69.0,27.83,SW,228,0.0,1.0,88,0.00,,,0.14,,2013-07-01 16:53:00,
2013-07-01 13:02:00,74.0,69.0,27.82,ESE,108,2.0,2.0,85,0.00,,,0.14,,2013-07-01 17:02:00,
2013-07-01 13:12:00,74.0,69.0,27.82,ESE,108,2.0,2.0,85,0.00,,,0.14,,2013-07-01 17:12:00,
2013-07-01 13:34:00,73.0,69.0,27.82,ENE,71,3.0,4.0,88,0.00,,,0.14,,2013-07-01 17:34:00,
2013-07-01 13:43:00,74.0,70.0,27.81,East,82,3.0,5.0,87,0.00,,,0.14,,2013-07-01 17:43:00,
2013-07-01 13:53:00,74.0,70.0,27.81,East,82,3.0,5.0,87,0.00,,,0.14,,2013-07-01 17:53:00,
2013-07-01 14:02:00,74.0,70.0,27.81,East,82,3.0,5.0,87,0.00,,,0.14,,2013-07-01 18:02:00,
2013-07-01 14:11:00,74.0,70.0,27.81,East,82,3.0,5.0,87,0.00,,,0.14,,2013-07-01 18:11:00,
2013-07-01 17:53:00,71.0,69.0,27.81,SSE,159,1.0,1.0,94,0.01,,,0.16,,2013-07-01 21:53:00,
2013-07-01 18:01:00,71.0,69.0,27.81,East,96,0.0,1.0,94,0.02,,,0.17,,2013-07-01 22:01:00,
2013-07-01 18:12:00,71.0,69.0,27.81,East,96,0.0,1.0,94,0.02,,,0.17,,2013-07-01 22:12:00,
2013-07-01 18:43:00,71.0,70.0,27.81,East,96,0.0,0.0,96,0.04,,,0.13,,2013-07-01 22:43:00,
2013-07-01 18:53:00,71.0,70.0,27.81,East,96,0.0,1.0,96,0.05,,,0.14,,2013-07-01 22:53:00,
2013-07-01 19:11:00,70.0,69.0,27.81,East,96,0.0,0.0,96,0.05,,,0.15,,2013-07-01 23:11:00,
2013-07-01 19:22:00,70.0,69.0,27.81,ESE,105,1.0,2.0,97,0.03,,,0.15,,2013-07-01 23:22:00,
2013-07-01 19:33:00,70.0,69.0,27.82,SE,124,0.0,1.0,97,0.02,,,0.10,,2013-07-01 23:33:00,
2013-07-01 19:44:00,70.0,69.0,27.82,SE,124,0.0,1.0,97,0.02,,,0.10,,2013-07-01 23:44:00,
2013-07-01 19:53:00,70.0,69.0,27.82,SE,124,0.0,1.0,97,0.01,,,0.10,,2013-07-01 23:53:00,
2013-07-01 20:01:00,70.0,69.0,27.82,SE,124,0.0,1.0,97,0.00,,,0.10,,2013-07-02 00:01:00,
2013-07-01 20:12:00,70.0,69.0,27.82,SE,124,0.0,1.0,97,0.00,,,0.10,,2013-07-02 00:12:00,
2013-07-01 20:22:00,70.0,69.0,27.83,East,98,1.0,2.0,97,0.01,,,0.11,,2013-07-02 00:22:00,
2013-07-01 20:34:00,70.0,69.0,27.83,NE,46,1.0,3.0,97,0.05,,,0.14,,2013-07-02 00:34:00,
2013-07-01 20:43:00,70.0,69.0,27.83,NE,46,1.0,3.0,97,0.05,,,0.14,,2013-07-02 00:43:00,
2013-07-01 20:53:00,70.0,69.0,27.83,SE,134,1.0,2.0,97,0.17,,,0.26,,2013-07-02 00:53:00,
2013-07-01 21:01:00,70.0,69.0,27.83,SE,134,1.0,2.0,97,0.17,,,0.26,,2013-07-02 01:01:00,
2013-07-01 21:11:00,70.0,69.0,27.82,ENE,66,3.0,3.0,97,0.28,,,0.37,,2013-07-02 01:11:00,
2013-07-01 21:22:00,70.0,69.0,27.83,East,93,1.0,6.0,97,0.34,,,0.44,,2013-07-02 01:22:00,
2013-07-01 21:33:00,70.0,69.0,27.82,SE,125,2.0,3.0,97,0.45,,,0.60,,2013-07-02 01:33:00,
2013-07-01 21:43:00,70.0,69.0,27.82,SE,125,2.0,3.0,97,0.45,,,0.60,,2013-07-02 01:43:00,
2013-07-01 21:53:00,70.0,69.0,27.84,SW,235,4.0,10.0,98,0.34,,,0.61,,2013-07-02 01:53:00,
2013-07-01 22:02:00,70.0,69.0,27.84,SW,235,4.0,10.0,98,0.34,,,0.61,,2013-07-02 02:02:00,
2013-07-01 22:12:00,70.0,69.0,27.85,WSW,256,2.0,6.0,98,0.23,,,0.61,,2013-07-02 02:12:00,
2013-07-01 22:22:00,70.0,69.0,27.85,SW,223,1.0,3.0,97,0.17,,,0.61,,2013-07-02 02:22:00,
2013-07-01 22:43:00,70.0,69.0,27.85,SW,221,0.0,1.0,97,0.01,,,0.61,,2013-07-02 02:43:00,
2013-07-01 22:53:00,70.0,69.0,27.86,SSW,200,1.0,3.0,97,0.01,,,0.62,,2013-07-02 02:53:00,
2013-07-01 23:02:00,70.0,69.0,27.86,SSW,200,1.0,3.0,97,0.01,,,0.62,,2013-07-02 03:02:00,
2013-07-01 23:12:00,70.0,69.0,27.86,SW,236,0.0,1.0,98,0.01,,,0.62,,2013-07-02 03:12:00,
2013-07-01 23:32:00,69.0,68.0,27.86,SW,236,0.0,1.0,98,0.01,,,0.62,,2013-07-02 03:32:00,
2013-07-01 23:43:00,69.0,68.0,27.85,SW,236,0.0,1.0,98,0.12,,,0.73,,2013-07-02 03:43:00,
2013-07-01 23:53:00,69.0,68.0,27.85,SW,236,0.0,1.0,98,0.18,,,0.80,,2013-07-02 03:53:00,